Regional Weather Roundup
Issued by NWS

Home | Current Version | Previous Version | Text Only | Print | Product List | Glossary Off
Versions: 1 2 3 4 5 6 7 8 9 10 11 12 13 14 15 16 17 18 19 20 21 22 23 24 25 26 27 28 29 30 31 32 33 34 35 36 37 38 39 40 41 42 43 44 45 46 47 48 49 50

000
ASUS45 KABQ 280410
RWRNM
WEATHER ROUNDUP FOR NEW MEXICO
NATIONAL WEATHER SERVICE ALBUQUERQUE NM
1000 PM MDT WED AUG 27 2014

NOTE: "FAIR" MEANS FEW OR NO CLOUDS BELOW 12,000 FEET AGL WITH NO
       SIGNIFICANT WEATHER OR OBSTRUCTIONS TO VISION.

      THIS PRODUCT IS RELEASED AS TWO VERSIONS.  ONE VERSION NEAR
      THE TOP OF THE HOUR CONTAINING PRELIMINARY DATA FROM ALBUQUERQUE
      AND OTHER STATIONS.  A FINAL VERSION WITH ADDITIONAL DATA IS
      ISSUED ABOUT 10 MINUTES AFTER THE HOUR.

NMZ501-503-504-510>518-280500-
NORTHWEST PLATEAU/NORTHCENTRAL MOUNTAINS

CITY           SKY/WX    TMP DP  RH WIND       PRES   REMARKS
FARMINGTON     CLEAR     59  47  64 NE6       30.27R
LOS ALAMOS     CLEAR     62  37  40 W8        30.35S
SANTA FE       CLEAR     59  43  55 N8        30.28R
ANGEL FIRE     FAIR      53  38  56 W6        30.38F

$$
NMZ402-403-502-505>509-280500-
WESTCENTRAL MOUNTAINS/SOUTHWEST MOUNTAINS

CITY           SKY/WX    TMP DP  RH WIND       PRES   REMARKS
GALLUP         CLEAR     58  41  53 S3        30.33R
SILVER CITY    PTCLDY    72  52  49 N3        30.27R

$$
NMZ407-409-411-412-280500-
SOUTHERN DESERTS

CITY           SKY/WX    TMP DP  RH WIND       PRES   REMARKS
LORDSBURG      FAIR      75  52  43 W6        30.16S
DEMING         MOCLDY    74  58  57 NE5       30.17R
LAS CRUCES     CLEAR     70  62  76 CALM      30.19R
HOLLOMAN AFB   PTCLDY    73  62  68 CALM      30.14R
ALAMOGORDO     PTCLDY    70  63  78 S3        30.17R
T OR C         CLOUDY    71  61  70 SW6       30.22R

$$
NMZ519>523-280500-
CENTRAL VALLEYS/CENTRAL HIGHLANDS

CITY           SKY/WX    TMP DP  RH WIND       PRES   REMARKS
ALBUQUERQUE    PTCLDY    71  53  52 CALM      30.23R
DOUBLE EAGLE   PTCLDY    66  55  68 CALM      30.27S
MORIARTY ARPT  FAIR      58  51  76 W6        30.29S
CLINES CORNERS CLEAR     57  49  74 W8        30.32S
BELEN          FAIR      65  58  77 SW5       30.22S
SOCORRO        FAIR      70  62  77 CALM      30.20S

$$
NMZ524>526-539-540-280500-
SOUTHCENTRAL MOUNTAINS

CITY           SKY/WX    TMP DP  RH WIND       PRES   REMARKS
RUIDOSO        CLEAR     61  55  82 W9        30.35S

$$
NMZ527>531-280500-
NORTHEAST HIGHLANDS/NORTHEAST PLAINS

CITY           SKY/WX    TMP DP  RH WIND       PRES   REMARKS
LAS VEGAS      CLEAR     57  46  66 SW13      30.29S
RATON          PTCLDY    64  40  41 SW9       30.19R
CLAYTON        PTCLDY    66  56  70 S9        30.10S

$$
NMZ532>537-280500-
EASTCENTRAL PLAINS

CITY           SKY/WX    TMP DP  RH WIND       PRES   REMARKS
TUCUMCARI      CLEAR     75  56  51 SW10      30.09R
CANNON AFB     MOCLDY    71  58  62 S8        30.14S
CLOVIS AIRPORT   N/A     70  54  56 S7        30.16S

$$
NMZ028-029-538-280500-
SOUTHEAST PLAINS

CITY           SKY/WX    TMP DP  RH WIND       PRES   REMARKS
ROSWELL        MOCLDY    74  61  63 S7        30.10R
CARLSBAD       PTCLDY    76  62  62 W8        30.06S
HOBBS          CLOUDY    77  63  61 N5        30.12S


$$



USA.gov is the U.S. government's official web portal to all federal, state and local government web resources and services.